{"data":{"norad_id":64301,"intl_designator":"2025-123L","name":"STARLINK-34372","alt_names":[],"object_type":"PAYLOAD","status":"ACTIVE","operator":null,"country":"US","launch_date":"2025-06-08","launch_site_code":"AFWTR","launch_vehicle":null,"mission":null,"orbit_class":"UNKNOWN","rcs_meters":null,"size_class":null,"mass_kg":null,"dimensions":null,"purposes":["comms"],"wikipedia_slug":null,"has_3d_model":false,"image_url":null,"decayed_at":null,"tle_current":{"epoch":"2026-05-25T00:52:04.187712Z","epoch_age_seconds":62103,"freshness":"FRESH","line1":"1 64301U 25123L   26145.03615958  .00005399  00000+0  45982-3 0  9998","line2":"2 64301  70.0016   1.9980 0002464 269.3398  90.7478 14.98341071 53059","mean_motion":14.98341071,"eccentricity":0.0002464,"inclination_deg":70.0016,"raan_deg":1.998,"arg_perigee_deg":269.3398,"mean_anomaly_deg":90.7478,"bstar":0.00045982,"rev_number":5305,"period_min":96.10628900661,"perigee_km":570.30913590838,"apogee_km":573.73417409356,"semimajor_km":6950.158655001,"source":"CELESTRAK","updated_at":"2026-05-25T13:38:20.367506Z"}}}